KB3GVC-13 Weather Reports


Display with metric or nautical units.
time (UTC)temp
F
wind
direction
speed
MPH
gust
MPH
rain 1hr
in
rain 24hr
in
rain mn
in
humidity
%
barometer
mb
20260506230944 69 162 1.0 2.0 0.00 0.06 0.06 80 1009.3
20260506230440 69 190 1.0 3.0 0.00 0.06 0.06 80 1009.0
20260506225937 69 147 2.0 2.0 0.00 0.06 0.06 80 1009.2
20260506225434 69 213 1.0 2.0 0.00 0.06 0.06 79 1009.2
20260506224931 69 207 4.0 6.0 0.00 0.06 0.06 79 1009.1
20260506224428 69 199 1.0 4.0 0.00 0.06 0.06 78 1009.2
20260506223925 69 275 1.0 2.0 0.00 0.06 0.06 78 1009.1
20260506223420 70 294 1.0 4.0 0.00 0.06 0.06 78 1009.1
20260506222918 70 168 0.0 3.0 0.00 0.06 0.06 78 1009.1
20260506222414 70 247 3.0 3.0 0.00 0.06 0.06 77 1009.3
20260506221911 69 138 3.0 3.0 0.00 0.06 0.06 78 1009.4
20260506221408 69 185 2.0 3.0 0.00 0.06 0.06 78 1009.1
20260506220906 70 136 5.0 6.0 0.00 0.06 0.06 77 1009.0
20260506220401 71 189 1.0 4.0 0.00 0.06 0.06 76 1009.0
20260506215858 70 137 2.0 6.0 0.00 0.06 0.06 76 1009.0
20260506215354 70 190 3.0 10.0 0.00 0.06 0.06 77 1009.1
20260506214850 70 227 1.0 4.0 0.00 0.06 0.06 77 1009.1
20260506214347 70 153 3.0 8.0 0.00 0.06 0.06 76 1009.1
20260506213845 72 223 6.0 8.0 0.00 0.06 0.06 74 1009.1
20260506213342 72 139 2.0 3.0 0.00 0.06 0.06 74 1008.8
20260506212839 72 232 1.0 2.0 0.00 0.06 0.06 73 1008.6
20260506212335 71 206 1.0 2.0 0.00 0.06 0.06 75 1008.9
20260506211830 71 278 5.0 7.0 0.00 0.06 0.06 75 1009.0
20260506211326 71 171 2.0 2.0 0.00 0.06 0.06 74 1008.8
20260506210824 72 304 2.0 7.0 0.00 0.06 0.06 74 1008.8
20260506210321 71 181 1.0 6.0 0.00 0.06 0.06 75 1009.0
20260506205818 71 180 2.0 7.0 0.00 0.06 0.06 74 1008.6
20260506205314 71 274 6.0 9.0 0.00 0.06 0.06 73 1008.7
20260506204810 71 304 1.0 4.0 0.00 0.06 0.06 75 1008.6
20260506204308 71 278 4.0 8.0 0.00 0.06 0.06 75 1009.0
20260506203806 72 236 4.0 6.0 0.00 0.06 0.06 74 1008.7
20260506203303 71 282 3.0 4.0 0.00 0.06 0.06 74 1008.6
20260506202759 70 297 3.0 4.0 0.00 0.06 0.06 75 1008.6
20260506202256 70 324 4.0 9.0 0.00 0.06 0.06 76 1008.7
20260506201753 71 215 2.0 10.0 0.00 0.06 0.06 74 1008.6
20260506201250 69 260 4.0 7.0 0.00 0.06 0.06 76 1008.6
20260506200747 69 253 3.0 6.0 0.00 0.06 0.06 76 1008.5
20260506200243 70 261 2.0 6.0 0.00 0.06 0.06 76 1008.7
20260506195739 69 200 4.0 4.0 0.00 0.06 0.06 77 1008.8
20260506195236 70 204 2.0 4.0 0.00 0.06 0.06 78 1008.8
20260506194733 68 272 4.0 4.0 0.00 0.06 0.06 79 1008.7
20260506194230 68 175 1.0 4.0 0.00 0.06 0.06 81 1008.8
20260506193728 67 194 5.0 8.0 0.00 0.06 0.06 81 1008.9
20260506193224 67 189 4.0 8.0 0.00 0.06 0.06 81 1008.9
20260506192721 67 137 3.0 3.0 0.00 0.06 0.06 81 1009.0
20260506192218 67 118 3.0 8.0 0.00 0.06 0.06 82 1008.8
20260506191714 67 216 2.0 9.0 0.00 0.06 0.06 82 1009.3
20260506191210 67 170 3.0 8.0 0.00 0.06 0.06 82 1009.2
20260506190708 66 311 5.0 6.0 0.00 0.06 0.06 83 1009.2
20260506190204 66 240 3.0 9.0 0.00 0.06 0.06 83 1009.3
20260506185702 66 216 2.0 4.0 0.00 0.06 0.06 83 1009.4
20260506185158 66 218 2.0 9.0 0.00 0.06 0.06 83 1009.5
20260506184656 65 184 4.0 8.0 0.00 0.06 0.06 83 1009.4
20260506184153 65 192 2.0 4.0 0.00 0.06 0.06 83 1009.6
20260506183650 65 186 4.0 11.0 0.00 0.06 0.06 83 1009.5
20260506183145 65 245 1.0 10.0 0.00 0.06 0.06 83 1009.5
20260506182643 65 307 3.0 10.0 0.00 0.06 0.06 83 1009.6
20260506182139 66 195 4.0 6.0 0.00 0.06 0.06 83 1009.7
20260506181638 65 280 2.0 6.0 0.00 0.06 0.06 84 1009.4
20260506181135 65 191 2.0 4.0 0.00 0.06 0.06 84 1009.6
20260506180631 65 259 4.0 6.0 0.00 0.06 0.06 85 1009.8
20260506180128 65 163 1.0 6.0 0.00 0.06 0.06 85 1009.9
20260506175624 65 112 4.0 10.0 0.00 0.06 0.06 84 1009.7
20260506175120 65 175 2.0 8.0 0.00 0.06 0.06 85 1009.8
20260506174619 65 163 1.0 7.0 0.00 0.06 0.06 85 1009.8
20260506174115 65 199 3.0 7.0 0.00 0.06 0.06 86 1009.8
20260506173613 65 155 4.0 4.0 0.00 0.06 0.06 86 1009.8
20260506173110 65 182 2.0 4.0 0.00 0.06 0.06 86 1009.9
20260506172607 64 185 1.0 3.0 0.00 0.06 0.06 87 1009.9
20260506172103 64 244 3.0 8.0 0.00 0.06 0.06 88 1010.0
20260506171601 64 214 2.0 4.0 0.00 0.06 0.06 88 1010.2
20260506171058 64 222 2.0 13.0 0.00 0.06 0.06 88 1009.9
20260506170556 64 185 3.0 8.0 0.00 0.06 0.06 88 1010.2
20260506170053 64 230 5.0 9.0 0.00 0.06 0.06 88 1010.2
20260506165551 64 159 4.0 6.0 0.00 0.06 0.06 89 1009.8
20260506165042 64 147 2.0 8.0 0.00 0.06 0.06 89 1010.0
20260506164539 64 210 6.0 8.0 0.00 0.06 0.06 89 1010.3
20260506164036 64 261 4.0 8.0 0.00 0.06 0.06 90 1010.1
20260506163532 64 198 3.0 8.0 0.00 0.06 0.06 90 1010.4
20260506163028 63 112 4.0 8.0 0.00 0.06 0.06 90 1010.3
20260506162524 63 199 2.0 8.0 0.00 0.06 0.06 91 1010.6
20260506162021 64 199 1.0 6.0 0.00 0.06 0.06 91 1010.4
20260506161519 63 130 3.0 7.0 0.00 0.06 0.06 91 1010.4
20260506161015 63 89 3.0 4.0 0.05 0.06 0.06 91 1010.4
20260506160513 63 283 2.0 9.0 0.05 0.06 0.06 91 1010.6
20260506160010 63 134 5.0 7.0 0.07 0.05 0.05 90 1010.9
20260506155508 63 155 3.0 6.0 0.07 0.05 0.05 89 1010.8
20260506153640 64 236 4.0 7.0 0.12 0.04 0.04 88 1011.4
20260506153137 64 180 1.0 6.0 0.07 0.03 0.03 87 1011.4
20260506152634 64 283 2.0 7.0 0.00 0.02 0.02 85 1011.1
20260506152131 64 213 6.0 8.0 0.00 0.02 0.02 84 1011.4
20260506151630 64 252 2.0 9.0 0.07 0.02 0.02 84 1011.3
20260506151126 64 248 1.0 7.0 0.12 0.02 0.02 83 1011.1
20260506150623 65 208 2.0 4.0 0.05 0.01 0.01 82 1011.1
20260506150120 65 200 3.0 7.0 0.00 0.00 0.00 78 1011.0
20260506145617 66 246 4.0 6.0 0.00 0.00 0.00 76 1011.0
20260506145114 66 144 2.0 15.0 0.00 0.00 0.00 76 1011.0
20260506144611 66 198 4.0 11.0 0.00 0.00 0.00 75 1011.2
20260506144108 67 190 2.0 8.0 0.00 0.00 0.00 74 1011.1
20260506143606 67 131 7.0 9.0 0.00 0.00 0.00 72 1011.4
20260506143104 68 268 1.0 8.0 0.00 0.00 0.00 71 1011.2
20260506142601 68 261 2.0 7.0 0.00 0.00 0.00 69 1011.4
20260506142059 68 286 3.0 10.0 0.00 0.00 0.00 69 1011.1
20260506141557 68 216 3.0 7.0 0.00 0.00 0.00 70 1011.4
20260506141055 68 217 3.0 8.0 0.00 0.00 0.00 69 1011.3
20260506140552 68 153 2.0 4.0 0.00 0.00 0.00 69 1011.3
20260506140049 68 174 4.0 10.0 0.00 0.00 0.00 67 1011.1
20260506135546 68 274 2.0 10.0 0.00 0.00 0.00 67 1011.0
20260506135042 68 211 4.0 11.0 0.00 0.00 0.00 67 1011.1
20260506134539 69 217 6.0 10.0 0.00 0.00 0.00 67 1011.2
20260506134035 69 156 4.0 11.0 0.00 0.00 0.00 66 1011.0
20260506133532 69 118 3.0 9.0 0.00 0.00 0.00 67 1010.6
20260506133029 69 233 5.0 9.0 0.00 0.00 0.00 67 1010.9
20260506132526 68 235 3.0 10.0 0.00 0.00 0.00 67 1011.1
20260506132024 68 202 6.0 13.0 0.00 0.00 0.00 68 1011.1
20260506131520 68 186 3.0 8.0 0.00 0.00 0.00 68 1011.3
20260506131017 67 173 4.0 10.0 0.00 0.00 0.00 69 1011.1
20260506130514 67 188 3.0 8.0 0.00 0.00 0.00 70 1011.1
20260506130011 67 143 3.0 9.0 0.00 0.00 0.00 70 1011.1
20260506125510 67 177 6.0 9.0 0.00 0.00 0.00 70 1011.3
20260506125007 67 308 1.0 6.0 0.00 0.00 0.00 71 1011.5
20260506124505 67 222 3.0 4.0 0.00 0.00 0.00 71 1011.4
20260506124002 67 60 4.0 9.0 0.00 0.00 0.00 71 1011.5
20260506123500 67 196 3.0 10.0 0.00 0.00 0.00 71 1011.5
20260506122958 67 197 2.0 3.0 0.00 0.00 0.00 72 1011.3
20260506122454 67 220 2.0 6.0 0.00 0.00 0.00 72 1011.4
20260506121953 67 133 2.0 9.0 0.00 0.00 0.00 72 1011.3
20260506121449 67 96 3.0 8.0 0.00 0.00 0.00 72 1011.1
20260506120946 67 107 2.0 4.0 0.00 0.00 0.00 73 1011.1
20260506120443 66 157 2.0 6.0 0.00 0.00 0.00 73 1011.1
20260506115941 66 165 4.0 10.0 0.00 0.00 0.00 74 1011.2
20260506115439 66 120 2.0 4.0 0.00 0.00 0.00 74 1011.1
20260506114937 66 161 6.0 10.0 0.00 0.00 0.00 74 1010.9
20260506114434 66 117 3.0 4.0 0.00 0.00 0.00 74 1010.9
20260506113933 66 240 2.0 10.0 0.00 0.00 0.00 74 1010.9
20260506113430 66 190 4.0 7.0 0.00 0.00 0.00 75 1011.1
20260506112926 66 128 3.0 6.0 0.00 0.00 0.00 75 1010.7
20260506112424 66 112 7.0 10.0 0.00 0.00 0.00 74 1010.9
20260506111921 66 166 4.0 7.0 0.00 0.00 0.00 74 1010.8
20260506111420 66 202 1.0 6.0 0.00 0.00 0.00 75 1010.8
20260506110916 66 158 2.0 6.0 0.00 0.00 0.00 75 1010.9
20260506110414 65 151 4.0 7.0 0.00 0.00 0.00 75 1011.0
20260506105911 65 180 1.0 9.0 0.00 0.00 0.00 75 1010.8
20260506105407 65 195 3.0 8.0 0.00 0.00 0.00 76 1010.7
20260506104904 65 134 4.0 8.0 0.00 0.00 0.00 75 1010.8
20260506104402 65 173 3.0 7.0 0.00 0.00 0.00 75 1010.8
20260506103900 65 102 3.0 6.0 0.00 0.00 0.00 76 1010.6
20260506103357 65 240 0.0 6.0 0.00 0.00 0.00 76 1010.8
20260506102854 65 128 2.0 4.0 0.00 0.00 0.00 76 1010.9
20260506102352 65 144 5.0 8.0 0.00 0.00 0.00 77 1010.9
20260506101849 65 137 2.0 4.0 0.00 0.00 0.00 77 1011.0
20260506101345 65 198 2.0 7.0 0.00 0.00 0.00 77 1010.9
20260506100843 65 143 4.0 8.0 0.00 0.00 0.00 77 1010.9
20260506100341 65 135 6.0 8.0 0.00 0.00 0.00 77 1010.9
20260506095839 65 156 2.0 6.0 0.00 0.00 0.00 77 1010.7
20260506095336 65 136 3.0 7.0 0.00 0.00 0.00 77 1010.9
20260506094833 64 232 1.0 9.0 0.00 0.00 0.00 77 1010.6
20260506094332 64 148 2.0 3.0 0.00 0.00 0.00 78 1010.6
20260506093829 64 160 2.0 4.0 0.00 0.00 0.00 78 1011.0
20260506093326 65 234 1.0 2.0 0.00 0.00 0.00 77 1011.0
20260506092824 65 179 3.0 6.0 0.00 0.00 0.00 77 1010.9
20260506092321 65 129 2.0 6.0 0.00 0.00 0.00 77 1010.7
20260506091818 65 176 4.0 8.0 0.00 0.00 0.00 77 1010.9
20260506091315 65 225 2.0 6.0 0.00 0.00 0.00 76 1010.8
20260506090813 65 199 1.0 3.0 0.00 0.00 0.00 76 1010.9
20260506090310 65 191 3.0 7.0 0.00 0.00 0.00 76 1011.0
20260506085807 65 192 0.0 1.0 0.00 0.00 0.00 76 1010.9
20260506085305 66 187 3.0 9.0 0.00 0.00 0.00 75 1010.8
20260506084800 66 158 4.0 7.0 0.00 0.00 0.00 75 1010.8
20260506084256 66 153 1.0 8.0 0.00 0.00 0.00 75 1010.7
20260506083753 66 184 2.0 6.0 0.00 0.00 0.00 75 1010.7
20260506083251 66 120 4.0 9.0 0.00 0.00 0.00 74 1010.9
20260506082748 67 190 2.0 9.0 0.00 0.00 0.00 74 1010.9
20260506082243 67 144 1.0 4.0 0.00 0.00 0.00 74 1011.0
20260506081741 67 196 3.0 4.0 0.00 0.00 0.00 73 1011.1
20260506081238 67 138 2.0 7.0 0.00 0.00 0.00 73 1011.1
20260506080737 67 153 2.0 8.0 0.00 0.00 0.00 73 1011.1
20260506080233 67 234 3.0 14.0 0.00 0.00 0.00 72 1011.2
20260506073217 67 188 4.0 9.0 0.00 0.00 0.00 73 1011.1
20260506072713 66 197 2.0 3.0 0.00 0.00 0.00 75 1011.1
20260506072212 67 220 1.0 3.0 0.00 0.00 0.00 74 1011.3
20260506071708 67 160 2.0 3.0 0.00 0.00 0.00 74 1011.1
20260506071206 66 206 0.0 1.0 0.00 0.00 0.00 75 1011.2
20260506070703 66 175 2.0 2.0 0.00 0.00 0.00 75 1011.1
20260506070200 66 254 0.0 2.0 0.00 0.00 0.00 75 1011.1
20260506062137 67 265 3.0 6.0 0.00 0.00 0.00 73 1011.4
20260506061632 68 234 2.0 7.0 0.00 0.00 0.00 72 1011.5
20260506061131 68 150 2.0 3.0 0.00 0.00 0.00 72 1011.7
20260506060629 68 249 1.0 2.0 0.00 0.00 0.00 72 1011.5
20260506060125 68 194 3.0 6.0 0.00 0.00 0.00 71 1011.5
20260506051057 69 206 1.0 3.0 0.00 0.00 0.00 67 1011.8
20260506050555 69 134 1.0 6.0 0.00 0.00 0.00 66 1012.0
20260506045046 70 196 6.0 9.0 0.00 0.00 0.00 65 1011.8
20260506044544 70 185 2.0 9.0 0.00 0.00 0.00 64 1011.8
20260506044040 70 150 2.0 6.0 0.00 0.00 0.00 63 1011.9
20260506043537 70 127 2.0 7.0 0.00 0.00 0.00 63 1011.8
20260506043036 70 179 0.0 8.0 0.00 0.00 0.00 62 1011.9
20260506042535 70 182 3.0 7.0 0.00 0.00 0.00 62 1011.8
20260506042032 70 92 1.0 3.0 0.00 0.00 0.00 62 1011.9
20260506041531 70 139 7.0 9.0 0.00 0.00 0.00 61 1011.7
20260506041027 71 280 2.0 3.0 0.00 0.00 0.00 60 1011.9
20260506040525 71 132 5.0 9.0 0.00 0.00 0.00 60 1011.9
20260506040020 71 198 1.0 9.0 0.00 0.00 0.00 60 1011.7
20260506035518 70 208 4.0 7.0 0.00 0.00 0.00 59 1011.8
20260506035014 71 138 0.0 3.0 0.00 0.00 0.00 60 1011.6
20260506034512 71 123 0.0 2.0 0.00 0.00 0.00 60 1011.7
20260506034009 71 161 3.0 9.0 0.00 0.00 0.00 59 1011.7
20260506033506 71 126 5.0 8.0 0.00 0.00 0.00 59 1011.8
20260506033002 71 92 4.0 8.0 0.00 0.00 0.00 58 1011.7
20260506032500 71 148 2.0 6.0 0.00 0.00 0.00 58 1011.6
20260506031956 71 158 2.0 7.0 0.00 0.00 0.00 58 1011.5
20260506031454 71 153 2.0 3.0 0.00 0.00 0.00 58 1011.6
20260506030951 71 127 2.0 7.0 0.00 0.00 0.00 57 1011.6
20260506030449 71 221 3.0 7.0 0.00 0.00 0.00 57 1011.7
20260506025946 71 172 4.0 8.0 0.00 0.00 0.00 57 1011.7
20260506025443 71 209 5.0 9.0 0.00 0.00 0.00 57 1011.8
20260506024939 71 154 4.0 6.0 0.00 0.00 0.00 57 1011.8
20260506024436 71 88 2.0 9.0 0.00 0.00 0.00 56 1011.9
20260506023932 71 135 3.0 4.0 0.00 0.00 0.00 57 1011.9
20260506023429 72 129 3.0 4.0 0.00 0.00 0.00 56 1012.1
20260506022926 72 161 4.0 10.0 0.00 0.00 0.00 55 1011.9
20260506022424 72 122 4.0 7.0 0.00 0.00 0.00 55 1011.9
20260506021921 72 205 4.0 6.0 0.00 0.00 0.00 56 1012.0
20260506021418 72 169 3.0 6.0 0.00 0.00 0.00 55 1011.7
20260506020915 72 176 4.0 6.0 0.00 0.00 0.00 55 1012.0
20260506020413 72 148 2.0 4.0 0.00 0.00 0.00 55 1011.8
20260506015910 72 151 1.0 3.0 0.00 0.00 0.00 55 1011.7
20260506015408 73 157 5.0 9.0 0.00 0.00 0.00 53 1011.7
20260506014904 73 167 2.0 6.0 0.00 0.00 0.00 53 1011.6
20260506014401 73 200 1.0 7.0 0.00 0.00 0.00 53 1011.5
20260506013858 73 181 4.0 7.0 0.00 0.00 0.00 53 1011.5
20260506013356 73 126 4.0 4.0 0.00 0.00 0.00 53 1011.6
20260506012851 73 148 1.0 4.0 0.00 0.00 0.00 52 1011.4
20260506012348 73 128 1.0 4.0 0.00 0.00 0.00 52 1011.4
20260506011846 73 171 4.0 6.0 0.00 0.00 0.00 51 1011.2
20260506011342 74 160 1.0 7.0 0.00 0.00 0.00 51 1011.2
20260506010840 74 172 4.0 6.0 0.00 0.00 0.00 50 1011.0
20260506010338 74 155 1.0 7.0 0.00 0.00 0.00 50 1011.0
20260506005834 74 161 5.0 7.0 0.00 0.00 0.00 49 1011.1
20260506005331 74 145 7.0 13.0 0.00 0.00 0.00 48 1011.1
20260506004827 74 127 6.0 9.0 0.00 0.00 0.00 48 1011.1
20260506004325 75 142 5.0 10.0 0.00 0.00 0.00 48 1010.9
20260506003821 74 106 5.0 6.0 0.00 0.00 0.00 48 1011.0
20260506003317 75 135 3.0 6.0 0.00 0.00 0.00 47 1010.9
20260506002814 75 192 4.0 7.0 0.00 0.00 0.00 47 1010.8
20260506002310 75 131 7.0 9.0 0.00 0.00 0.00 47 1010.7
20260506001806 75 133 2.0 3.0 0.00 0.00 0.00 47 1010.8
20260506001303 76 228 0.0 4.0 0.00 0.00 0.00 46 1010.5
20260506000800 75 155 7.0 13.0 0.00 0.00 0.00 46 1010.4
20260506000258 76 174 1.0 10.0 0.00 0.00 0.00 45 1010.4
20260505235754 76 141 6.0 10.0 0.00 0.00 0.00 45 1010.5
20260505235252 76 156 5.0 9.0 0.00 0.00 0.00 44 1010.2
20260505234749 76 170 3.0 9.0 0.00 0.00 0.00 44 1010.3
20260505234247 77 187 1.0 3.0 0.00 0.00 0.00 44 1010.4
20260505233743 77 179 6.0 13.0 0.00 0.00 0.00 43 1010.4
20260505233241 77 177 6.0 11.0 0.00 0.00 0.00 43 1010.6
20260505232738 77 135 4.0 6.0 0.00 0.00 0.00 43 1010.5
20260505232235 78 255 4.0 14.0 0.00 0.00 0.00 43 1010.4
20260505231732 78 130 5.0 9.0 0.00 0.00 0.00 43 1010.4